Location: Härggis
(46.9540°N, 8.4897°E)
Time: 20:33:14
(UTC+00:00)

Meteor 1-28 Rocket - Pass Details

Date: 27 May 2022
Orbit: 499 x 518 km, 97.4° (Epoch: 02 July)

Event Time Altitude Azimuth Distance (km) Brightness Sun altitude
Exits shadow 01:47:28 18° 172° (S) 1,315 4.8 -14.4°
Maximum altitude 01:50:11 78° 258° (WSW) 529 3.1 -14.2°
Drops below altitude 10° 01:53:56 10° 345° (NNW) 1,736 6.4 -13.8°
Sets 01:56:02 0° 347° (NNW) 2,623 7.4 -13.6°
